Regional Weather Roundup
Issued by NWS

Home | Current Version | Previous Version | Graphics & Text | Print | Product List | Glossary On
Versions: 1 2 3 4 5 6 7 8 9 10 11 12 13 14 15 16 17 18 19 20 21 22 23 24 25 26 27 28 29 30 31 32 33 34 35 36 37 38 39 40 41 42 43 44 45 46 47 48 49 50
156
ASUS43 KDMX 240001
RWRIA

WEATHER ROUNDUP FOR IOWA
NATIONAL WEATHER SERVICE DES MOINES IA
700 PM CDT THU MAR 23 2017

NOTE: "FAIR" INDICATES FEW OR NO CLOUDS BELOW 12,000 FEET WITH NO
SIGNIFICANT WEATHER AND/OR OBSTRUCTIONS TO VISIBILITY.

* - THESE STATIONS ARE NOT NWS STATIONS...THUS NOT UNDER NWS
QUALITY CONTROL.  THEY ALSO DO NOT REPORT WEATHER SUCH
AS PRECIPITATION OR FOG.

IAZ001>003-012>014-020>022-031>034-043>046-240100-
   NORTHWEST IOWA

CITY           SKY/WX    TMP DP  RH WIND       PRES   REMARKS
CARROLL *      PTCLDY    55  39  54 E13       29.74R
DENISON *      CLOUDY    59  41  51 E13G22    29.66F
LE MARS *      CLOUDY    57  45  62 SE14      29.66F
ORANGE CITY *  PTCLDY    54  46  76 SE6       29.66F
SHELDON *      CLOUDY    48  48 100 SE8       29.68S
STORM LAKE *   CLOUDY    50  41  71 SE13      29.72R
$$

IAZ055>058-069>071-079>083-090>094-240100-
   SOUTHWEST IOWA

CITY           SKY/WX    TMP DP  RH WIND       PRES   REMARKS
ATLANTIC *     PTCLDY    72  52  49 S7        29.69R
AUDUBON *      PTCLDY    61  43  51 SE6       29.73R
CLARINDA *     CLOUDY    75  52  43 S14G23    29.70S
COUNCIL BLFS * CLOUDY    73  54  49 S16G22    29.67R
CRESTON *      PTCLDY    72  50  46 S17       29.72F
HARLAN  *      PTCLDY    70  52  52 S16       29.70F
RED OAK *      MOCLDY    75  54  46 S13G21    29.68R
SHENANDOAH *   MOCLDY    77  52  41 S20G26    29.67S
$$

IAZ047>049-059>061-072>074-084-240100-
   CENTRAL IOWA

CITY           SKY/WX    TMP DP  RH WIND       PRES   REMARKS
ANKENY *       MOCLDY    52  37  58 E17       29.78F
BOONE *        CLOUDY    48  37  66 SE28G35   29.71F
CHARITON *     PTCLDY    63  41  45 SE14G21   29.76F
DES MOINES     MOCLDY    55  38  52 E12       29.77F
6HR MIN TEMP:  48; 6HR MAX TEMP:  58;

GRINNELL*      CLOUDY    48  37  65 SE14G22   29.84F
NEWTON *       CLOUDY    50  37  62 SE17G24   29.80F
PELLA *        PTCLDY    53  38  56 SE15G22   29.82F
PERRY *          N/A     52  35  53 E23G29    29.72F
$$

IAZ004>006-015-016-023>025-035-036-240100-
   NORTH CENTRAL IOWA

CITY           SKY/WX    TMP DP  RH WIND       PRES   REMARKS
ALGONA *       CLOUDY    45  39  81 SE12G17   29.74R
CLARION *      CLOUDY    45  39  81 SE18      29.79R
FORT DODGE *   CLOUDY    46  34  61 SE14G24   29.76S
WEBSTER CITY * PTCLDY    46  36  66 VRB5G35   29.79R
IOWA FALLS *     N/A     46  37  72 E22       29.78F
$$

IAZ007>011-017>019-026>030-037>042-050>054-066-240100-
   NORTHEAST IOWA

CITY           SKY/WX    TMP DP  RH WIND       PRES   REMARKS
CHARLES CITY * CLOUDY    39  39 100 S20G29    29.85R WCI  30
CLINTON *      CLOUDY    42  34  73 SE17      29.95F
DECORAH *      PTCLDY    39  36  87 SE18G24   29.81F WCI  30
MONTICELLO *   MOCLDY    41  36  81 SE14      29.92S
WATERLOO       CLOUDY    42  36  79 SE15G25   29.86F
6HR MIN TEMP:  39; 6HR MAX TEMP:  42; 6HR PCP:  0.03;

$$

IAZ064-065-067-068-078-240100-
   EAST CENTRAL IOWA

CITY           SKY/WX    TMP DP  RH WIND       PRES   REMARKS
MUSCATINE *    CLOUDY    46  37  71 SE18G26   29.92F
$$

IAZ062-063-075>077-085>089-095>099-240100-
   SOUTHEAST IOWA

CITY           SKY/WX    TMP DP  RH WIND       PRES   REMARKS
FAIRFIELD *    CLOUDY    52  39  62 SE17      29.87F
FORT MADISON * PTCLDY    52  39  62 SE8       29.94F
KEOKUK *       PTCLDY    52  41  66 SE12      29.92S
WASHINGTON *   CLOUDY    48  39  71 SE17      29.90F
$$

ABBREVIATIONS USED IN REMARKS
   TC - TEMPERATURES IN CELSIUS
  WCI - WIND CHILL INDEX
   HX - HEAT INDEX
  VSB - VISIBILITY
$$





USA.gov is the U.S. government's official web portal to all federal, state and local government web resources and services.